Regional Weather Roundup
Issued by NWS Little Rock, AR

Home | Current Version | Previous Version | Text Only | Print | Product List | Glossary Off
Versions: 1 2 3 4 5 6 7 8 9 10 11 12 13 14 15 16 17 18 19 20 21 22 23 24 25 26 27 28 29 30 31 32 33 34 35 36 37 38 39 40 41 42 43 44 45 46 47 48 49 50

000
ASUS44 KLZK 272105
RWRLZK

WEATHER ROUNDUP FOR ARKANSAS
NATIONAL WEATHER SERVICE LITTLE ROCK AR
300 PM CST FRI FEB 27 2015

NOTE: "FAIR" INDICATES FEW OR NO CLOUDS BELOW 12,000 FEET WITH NO
SIGNIFICANT WEATHER AND/OR OBSTRUCTIONS TO VISIBILITY.

ARZ001-003-010-029-272200-
NORTHWEST ARKANSAS

CITY           SKY/WX    TMP DP  RH WIND       PRES   REMARKS
FAYETTEVILLE   LGT SNOW  19   9  65 E6        30.51F WCI  11
FORT SMITH     SNOW      21  16  81 E3        30.55F VSB 1/2
HARRISON       CLOUDY    19   2  47 E3        30.52R
BENTONVILLE    CLOUDY    18   9  68 E8        30.51S WCI   7
ROGERS         LGT SNOW  17  10  74 NE8       30.51S WCI   7
SILOAM SPGS    CLOUDY    19   1  45 E6        30.52S WCI  11
HIGHFILL       LGT SNOW  19   9  65 E6        30.51S WCI  11
SPRINGDALE     PTSUNNY   19   1  45 E7        30.51F WCI  10
$$

ARZ004-005-016-272200-
NORTH CENTRAL ARKANSAS

CITY           SKY/WX    TMP DP  RH WIND       PRES   REMARKS
BATESVILLE     CLOUDY    27   7  43 E7        30.59R WCI  19
FLIPPIN        CLOUDY    23   1  39 CALM      30.56R
MTN HOME       CLOUDY    22   1  40 N3        30.55R
$$

ARZ040-041-272200-
WEST CENTRAL ARKANSAS

CITY           SKY/WX    TMP DP  RH WIND       PRES   REMARKS
MENA           CLOUDY    27  21  80 NE9       30.47F WCI  17
MOUNT IDA      CLOUDY    29  10  45 VRB3      30.48F
$$

ARZ009-017-025-026-028-272200-
NORTHEAST ARKANSAS

CITY           SKY/WX    TMP DP  RH WIND       PRES   REMARKS
CORNING        FAIR      23  12  63 NE13G18   30.59S WCI  11
JONESBORO      CLOUDY    24  16  71 NE12      30.57S WCI  13
NEWPORT        CLOUDY    25  14  62 N9        30.61R WCI  16
WALNUT RIDGE   CLOUDY    25  12  58 NE9       30.60R WCI  15
BLYTHEVILLE    MOSUNNY   27  17  66 N12       30.58R WCI  17
NW BLYTHEVILLE PTSUNNY   25  16  68 NE12      30.58S WCI  14
$$

ARZ022-023-033-042-044-272200-
CENTRAL ARKANSAS

CITY           SKY/WX    TMP DP  RH WIND       PRES   REMARKS
LITTLE ROCK    CLOUDY    31   5  33 N9        30.58R WCI  23
N LITTLE ROCK  CLOUDY    29  11  47 E6        30.58R WCI  23
JACKSONVILLE   CLOUDY    29   7  39 VRB3      30.56S
SEARCY         CLOUDY    28  11  48 N9        30.60R WCI  19
HOT SPRINGS    CLOUDY    30   9  41 NE12      30.53F WCI  20
RUSSELLVILLE   CLOUDY    29   2  31 CALM      30.56S
CLINTON        FAIR      28   0  29 NW5       30.59S WCI  23
$$

ARZ036-272200-
EAST ARKANSAS

CITY           SKY/WX    TMP DP  RH WIND       PRES   REMARKS
WEST MEMPHIS   MOSUNNY   32  21  64 NE13      30.51F WCI  22
$$

ARZ050-053-066-070-073-272200-
SOUTHWEST ARKANSAS

CITY           SKY/WX    TMP DP  RH WIND       PRES   REMARKS
ARKADELPHIA    FAIR      32  15  49 N9        30.55F WCI  24
CAMDEN         CLOUDY    32  16  51 MISG      30.52F
TEXARKANA      CLOUDY    30  15  53 NE9       30.48F WCI  22
EL DORADO      CLOUDY    33  18  53 N7        30.49F WCI  27
DE QUEEN       CLOUDY    31  13  47 E9        30.49F WCI  23
$$

ARZ056-057-069-272200-
SOUTHEAST ARKANSAS

CITY           SKY/WX    TMP DP  RH WIND       PRES   REMARKS
PINE BLUFF     CLOUDY    28  18  66 N13       30.56R WCI  17
STUTTGART      CLOUDY    28  16  59 N15       30.55S WCI  17
MONTICELLO     PTSUNNY   34  19  54 N7        30.51R WCI  28

$$





USA.gov is the U.S. government's official web portal to all federal, state and local government web resources and services.